Location: Poughquag
(41.6090°N, 73.6820°W)
Time: 14:54:24
(UTC-04:00)

Altair - Pass Details

Date: 07 June 2020
Orbit: 1501 x 1683 km, 47.2° (Epoch: 05 July)

Event Time Altitude Azimuth Distance (km) Brightness Sun altitude
Rises 21:22:48 0° 244° (WSW) 4,774 10.4 -9.1°
Reaches altitude 10° 21:25:50 10° 244° (WSW) 3,814 9.9 -9.6°
Maximum altitude 21:35:40 87° 334° (NNW) 1,652 7.7 -10.9°
Drops below altitude 10° 21:45:51 10° 66° (ENE) 3,939 9.5 -12.2°
Sets 21:49:02 0° 66° (ENE) 4,936 10.0 -12.6°
